User: anonymous   Login
Location: Sun City Center
(27.6996°N, 82.3528°W)
Time: 07:54:03
(UTC-05:00)
Language:

Cosmos 2084 Rocket - Orbit

View from above orbital plane
View from above orbital plane
View from above satellite
View from above satellite

Ground track
Ground track

The orbit data is extracted from the following two-line orbital elements,

1 20666U 90055D   16041.11137315  .00001310  00000-0  13026-3 0  9993
2 20666  62.7856 353.3677 0126015  60.4707 300.8881 14.91381194387624
Epoch (UTC): 10 February 2016 02:40:22
Eccentricity: 0.0126015
inclination: 62.7856°
perigee height: 506 km
apogee height: 681 km
right ascension of ascending node: 353.3677°
argument of perigee: 60.4707°
revolutions per day: 14.91381194
mean anomaly at epoch: 300.8881°
orbit number at epoch: 38762

The dashed part of the orbit path shows where the satellite is in the earth's shadow,  

DLR